Location: ?
(35.4064°N, 139.3593°E)
Time: 16:21:11
(UTC+00:00)

Hubble Space Telescope - Pass Details

Date: 27 June 2024
Orbit: 509 x 513 km, 28.5° (Epoch: 23 July)

Event Time Altitude Azimuth Distance (km) Brightness Sun altitude
Exits shadow 18:45:25 10° 217° (SW) 1,714 2.7 -8.4°
Maximum altitude 18:48:27 21° 167° (SSE) 1,168 2.3 -7.9°
Drops below altitude 10° 18:51:30 10° 117° (ESE) 1,716 3.7 -7.4°
Sets 18:54:06 0° 101° (E) 2,601 5.0 -7.0°
